Weather reports worldwide

Advertisment
Gioia Del Colle, Italy (16312): temperature & dewpoint: 03.12.2019 21:00:00 - 09.12.2019 21:00:00 (CET)Gioia Del Colle, Italy (16312): wind speed: 03.12.2019 21:00:00 - 09.12.2019 21:00:00 (CET)Gioia Del Colle, Italy (16312): wind direction: 03.12.2019 21:00:00 - 09.12.2019 21:00:00 (CET)Gioia Del Colle, Italy (16312): reduced air pressure: 03.12.2019 21:00:00 - 09.12.2019 21:00:00 (CET)Gioia Del Colle, Italy (16312): visibility: 03.12.2019 21:00:00 - 09.12.2019 21:00:00 (CET)
Date & Time tt [°C] td [°C] ff [km/h] ff [kn] dd ppp [hPa] vv [km]
09.12.2019 21:00:00 - - - - - - -
09.12.2019 20:00:00 - - - - - - -
09.12.2019 19:00:00 10,2 10,2 8 4 S 1008,5 4,5
09.12.2019 18:00:00 - - - - - - -
09.12.2019 17:00:00 - - - - - - -
09.12.2019 16:00:00 12,6 10,1 16 9 S 1008,5 10
09.12.2019 15:00:00 13,0 9,0 16 9 S - 10
09.12.2019 14:00:00 13,0 10,0 18 10 S - 10
09.12.2019 13:00:00 13,6 11,1 18 10 S 1010,4 10
09.12.2019 12:00:00 14,0 10,0 21 11 S - 9
09.12.2019 11:00:00 13,0 13,0 18 10 S - 9
09.12.2019 10:00:00 11,2 11,2 15 8 SSE 1013,5 3,5
09.12.2019 09:00:00 11,0 11,0 13 7 S - 0,2
09.12.2019 08:00:00 9,0 9,0 5 3 SSW - 0,5
09.12.2019 07:00:00 8,6 8,6 8 4 SSW 1014,7 0,2
09.12.2019 06:00:00 9,0 9,0 9 5 S - 0,4
09.12.2019 05:00:00 9,0 9,0 4 2 - - 1,5
09.12.2019 04:00:00 9,6 9,6 2 1 - 1016,6 0,5
09.12.2019 03:00:00 10,0 10,0 5 3 S - 1,2
09.12.2019 02:00:00 9,0 9,0 11 6 S - 0,6
09.12.2019 01:00:00 9,2 9,2 9 5 S 1017,3 0,2
09.12.2019 00:00:00 9,0 9,0 9 5 S - 0,3
08.12.2019 23:00:00 9,0 9,0 11 6 S - 0,4
08.12.2019 22:00:00 8,6 8,6 11 6 S 1018,7 2,0
08.12.2019 21:00:00 9,0 9,0 5 3 SSW - 2,8
08.12.2019 20:00:00 9,0 9,0 4 2 S - 4,0
08.12.2019 19:00:00 10,6 10,3 8 4 SSE 1019,1 6
08.12.2019 18:00:00 12,0 11,0 5 3 SE - 7
08.12.2019 17:00:00 13,0 10,0 2 1 - - 8
08.12.2019 16:00:00 13,8 9,8 4 2 E 1018,9 10
08.12.2019 15:00:00 15,0 9,0 8 4 NNE - 10
08.12.2019 14:00:00 15,0 7,0 4 2 N - 10
08.12.2019 13:00:00 15,0 7,3 4 2 N 1019,2 10
08.12.2019 12:00:00 15,0 8,0 2 1 - - 10
08.12.2019 11:00:00 15,0 9,0 4 2 - - 10
08.12.2019 10:00:00 12,0 9,2 5 3 NNE 1021,1 10
08.12.2019 09:00:00 10,0 9,0 5 3 NNW - 10
08.12.2019 08:00:00 8,0 8,0 4 2 NE - 10
08.12.2019 07:00:00 7,6 7,6 5 3 NNE 1021,2 8
08.12.2019 06:00:00 9,0 9,0 5 3 WNW - 8
08.12.2019 05:00:00 9,0 9,0 5 3 WNW - 8
08.12.2019 04:00:00 9,0 9,0 2 1 NNE 1020,2 8
08.12.2019 03:00:00 10,0 8,0 4 2 NNE - 8
08.12.2019 02:00:00 10,0 8,0 2 1 W - 8
08.12.2019 01:00:00 10,0 8,4 2 1 WNW 1020,1 8
08.12.2019 00:00:00 10,0 8,0 4 2 SW - 8
07.12.2019 23:00:00 10,0 8,0 8 4 WSW - 8
07.12.2019 22:00:00 11,0 8,7 5 3 WNW 1020,3 8
07.12.2019 21:00:00 10,0 9,0 4 2 WSW - 8
07.12.2019 20:00:00 10,0 10,0 4 2 - - 8
07.12.2019 19:00:00 10,0 9,2 5 3 SSW 1019,6 9
07.12.2019 18:00:00 11,0 10,0 4 2 - - 10
07.12.2019 17:00:00 12,0 10,0 4 2 SSW - 10
07.12.2019 16:00:00 13,8 8,8 5 3 N 1018,4 10
07.12.2019 15:00:00 14,0 8,0 8 4 N - 10
07.12.2019 14:00:00 14,0 7,0 13 7 NW - 10
07.12.2019 13:00:00 14,8 6,6 13 7 NNW 1018,1 10
07.12.2019 12:00:00 15,0 6,0 21 11 NW - 10
07.12.2019 11:00:00 15,0 7,0 18 10 NW - 10
07.12.2019 10:00:00 14,2 8,4 15 8 WNW 1019,3 10
07.12.2019 09:00:00 13,0 9,0 18 10 W - 10
07.12.2019 08:00:00 11,0 8,0 15 8 W - 10
07.12.2019 07:00:00 11,0 8,2 16 9 W 1018,7 10
07.12.2019 06:00:00 11,0 8,0 16 9 W - 8
07.12.2019 05:00:00 11,0 10,0 13 7 WSW - 8
07.12.2019 04:00:00 9,2 9,2 4 2 N 1018,9 8
07.12.2019 03:00:00 9,0 9,0 8 4 NNE - 8
07.12.2019 02:00:00 9,0 9,0 4 2 W - 8
07.12.2019 01:00:00 9,0 9,0 2 1 - 1019,6 8
07.12.2019 00:00:00 10,0 10,0 4 2 - - 0,9
06.12.2019 23:00:00 11,0 11,0 4 2 - - 0,1
06.12.2019 22:00:00 11,8 11,8 5 3 - 1020,4 0,1
06.12.2019 21:00:00 12,0 12,0 4 2 - - 0,1
06.12.2019 20:00:00 13,0 13,0 2 1 N - 0,4
06.12.2019 19:00:00 13,0 13,0 4 2 N 1021,8 0,4
06.12.2019 18:00:00 12,0 12,0 2 1 WNW - 1,6
06.12.2019 17:00:00 13,0 13,0 4 2 S - 1,8
06.12.2019 16:00:00 13,2 13,2 5 3 S 1020,7 2,0
06.12.2019 15:00:00 14,0 14,0 8 4 S - 2,5
06.12.2019 14:00:00 14,0 14,0 4 2 S - 2,5
06.12.2019 13:00:00 13,4 13,4 4 2 N 1023,3 2,0
06.12.2019 12:00:00 13,0 13,0 2 1 WNW - 0,6
06.12.2019 11:00:00 12,0 12,0 4 2 NW - 0,4
06.12.2019 10:00:00 12,0 12,0 4 2 WNW 1024,3 0,3
06.12.2019 09:00:00 12,0 12,0 4 2 N - 0,2
06.12.2019 08:00:00 12,0 12,0 8 4 NE - 0,2
06.12.2019 07:00:00 11,0 11,0 5 3 NNE 1023,5 0,2
06.12.2019 06:00:00 11,0 11,0 4 2 N - 0,3
06.12.2019 05:00:00 10,0 10,0 5 3 NNE - 0,5
06.12.2019 04:00:00 10,2 10,2 4 2 NNW 1023,8 0,5
06.12.2019 03:00:00 10,0 10,0 5 3 N - 0,6
06.12.2019 02:00:00 10,0 10,0 5 3 N - 0,6
06.12.2019 01:00:00 10,0 10,0 5 3 N 1024,3 0,6
06.12.2019 00:00:00 10,0 10,0 9 5 NE - 0,6
05.12.2019 23:00:00 10,0 10,0 4 2 NNW - 0,6
05.12.2019 22:00:00 10,0 10,0 4 2 N 1024,9 1,2
05.12.2019 21:00:00 10,0 10,0 5 3 ESE - 1,2
05.12.2019 20:00:00 10,0 10,0 4 2 NE - 1,2
05.12.2019 19:00:00 10,0 10,0 5 3 NNE 1024,3 1,0
05.12.2019 18:00:00 10,0 10,0 4 2 NNW - 0,6
05.12.2019 17:00:00 10,0 10,0 5 3 N - 0,6
05.12.2019 16:00:00 9,8 9,8 5 3 NNE 1023,4 0,3
05.12.2019 15:00:00 10,0 10,0 9 5 N - 1,2
05.12.2019 14:00:00 10,0 10,0 9 5 N - 1,4
05.12.2019 13:00:00 9,6 9,6 8 4 N 1023,5 1,6
05.12.2019 12:00:00 9,0 9,0 9 5 N - 2,8
05.12.2019 11:00:00 9,0 9,0 5 3 NNW - 3,5
05.12.2019 10:00:00 8,4 8,1 5 3 N 1024,4 4,5
05.12.2019 09:00:00 7,0 7,0 5 3 N - 5
05.12.2019 08:00:00 7,0 7,0 5 3 NW - 10
05.12.2019 07:00:00 6,0 6,0 4 2 NW 1023,8 10
05.12.2019 06:00:00 4,0 4,0 4 2 NNE - 10
05.12.2019 05:00:00 3,0 3,0 5 3 NNE - 10
05.12.2019 04:00:00 3,0 3,0 8 4 N 1024,3 10
05.12.2019 03:00:00 4,0 4,0 2 1 NNE - 10
05.12.2019 02:00:00 4,0 4,0 0 0 N - 10
05.12.2019 01:00:00 3,6 3,6 8 4 W 1024,3 10
05.12.2019 00:00:00 4,0 4,0 4 2 WNW - 10
04.12.2019 23:00:00 4,0 4,0 8 4 N - 10
04.12.2019 22:00:00 5,0 5,0 8 4 W 1023,0 10
04.12.2019 21:00:00 7,0 4,0 2 1 NNW - 10
04.12.2019 20:00:00 9,0 5,0 9 5 NNE - 10
04.12.2019 19:00:00 8,6 3,8 8 4 N 1021,0 10
04.12.2019 18:00:00 - - - - - - -
04.12.2019 17:00:00 - - - - - - -
04.12.2019 16:00:00 9,0 2,1 16 9 N 1020,4 10
04.12.2019 15:00:00 9,0 2,0 15 8 NNW - 10
04.12.2019 14:00:00 10,0 1,0 21 11 N - 10
04.12.2019 13:00:00 9,6 2,0 21 11 N 1020,5 10
04.12.2019 12:00:00 9,0 3,0 21 11 N - 10
04.12.2019 11:00:00 9,0 4,0 18 10 N - 10
04.12.2019 10:00:00 8,2 3,3 21 11 NNW 1021,7 10
04.12.2019 09:00:00 7,0 3,0 18 10 NNW - 10
04.12.2019 08:00:00 7,0 2,0 18 10 NNW - 10
04.12.2019 07:00:00 6,6 2,3 18 10 NW 1021,2 10
04.12.2019 06:00:00 7,0 3,0 21 11 NNW - 8
04.12.2019 05:00:00 7,0 3,0 22 12 NW - 8
04.12.2019 04:00:00 7,8 4,0 22 12 NW 1020,2 8
04.12.2019 03:00:00 7,0 4,0 18 10 NW - 9
04.12.2019 02:00:00 7,0 4,0 15 8 NW - 9
04.12.2019 01:00:00 7,2 3,1 16 9 NW 1020,8 9
04.12.2019 00:00:00 8,0 4,0 18 10 NW - 9
03.12.2019 23:00:00 8,0 4,0 18 10 NW - 9
03.12.2019 22:00:00 8,8 4,8 16 9 NW 1020,4 8
03.12.2019 21:00:00 9,0 6,0 15 8 NW - 8

tt = temperature
td = dewpoint
ff = wind speed
dd = wind direction
ppp = reduced air pressure
vv = visibility

Next stations